Wind_Speed
20 19 18 17 13 11 11 9 8 8 8 8 7 6 5 3 0 1 1 2 3 3 3 3 4 4 4 5 5 3 5 6 6 7 7 7 8 8 8 7 6 6
19 19 18 18 15 13 12 11 11 10 9 10 9 8 8 6 2 1 2 2 1 1 1 1 2 2 2 2 2 2 4 5 5 6 6 7 8 8 8 8 7 6
19 17 16 17 16 13 12 12 13 11 10 10 10 10 11 10 6 4 4 4 3 3 2 2 2 1 2 2 2 3 3 3 3 4 5 5 6 7 7 7 7 7
19 17 15 15 14 13 12 12 13 13 12 11 11 12 13 12 10 8 7 6 6 6 4 5 4 4 5 4 3 4 3 3 3 4 4 3 4 5 6 6 6 6
18 18 16 14 13 13 12 12 12 13 13 12 12 13 13 14 14 11 10 9 8 8 8 7 7 7 7 6 5 5 5 5 4 4 4 4 4 3 2 3 4 4
17 16 15 14 14 13 13 13 12 12 12 11 12 13 13 15 16 15 14 13 12 12 11 11 10 9 9 9 8 8 7 7 7 5 4 5 6 4 3 3 3 3
16 15 14 15 15 14 13 14 13 12 12 12 12 13 14 15 16 17 17 16 15 14 14 14 13 12 12 11 10 10 9 8 9 8 5 6 8 7 6 6 4 3
17 16 15 15 15 15 14 14 14 14 14 14 14 15 16 16 17 18 18 18 17 17 15 15 15 14 14 13 12 11 11 10 10 11 8 6 9 10 8 8 5 2
17 16 15 15 16 17 16 15 16 16 16 16 16 18 18 18 18 19 20 20 19 19 17 16 15 14 14 14 13 12 12 12 12 13 11 8 11 12 9 9 9 6
17 16 16 17 20 21 18 17 18 18 18 18 19 20 20 20 19 20 22 22 21 21 19 17 16 15 14 15 14 12 12 13 13 15 13 10 12 13 9 9 12 11
17 17 17 19 22 23 20 20 22 23 22 22 23 24 25 25 23 23 24 25 24 23 21 19 18 17 15 16 16 13 11 12 13 14 13 10 13 14 10 11 14 13
10 12 13 16 19 20 20 21 24 25 23 22 23 26 29 31 29 27 27 27 25 24 23 21 20 18 17 17 17 16 14 13 14 14 13 11 12 13 11 14 16 14
3 5 6 9 13 16 18 19 22 22 20 19 22 25 29 31 29 27 27 26 26 25 24 23 22 21 20 19 18 18 17 16 15 16 15 13 12 13 13 15 16 15
1 3 3 5 8 11 13 15 17 18 18 19 21 24 27 28 27 26 26 26 26 26 26 26 26 25 24 21 19 19 20 20 20 20 18 15 15 15 15 15 16 15
1 2 3 4 5 6 9 11 12 13 14 15 17 20 24 26 25 24 25 25 25 26 28 29 28 28 26 23 22 21 20 22 23 23 22 19 17 16 16 16 17 17
1 3 4 4 5 5 7 9 10 11 12 12 13 16 19 23 23 22 22 24 25 26 27 27 28 28 26 25 25 25 24 24 23 23 23 22 19 17 16 17 18 18
2 3 4 5 6 6 8 9 9 11 13 13 14 15 16 17 19 19 19 21 23 23 23 24 27 27 26 26 28 28 27 26 25 24 25 23 19 17 17 17 15 15
4 4 5 6 7 7 8 9 10 11 13 13 14 16 18 17 17 18 18 18 19 19 19 22 25 26 27 28 29 29 27 26 26 26 26 23 20 19 19 17 15 16
4 5 6 7 7 8 8 9 10 11 12 13 14 15 17 18 18 17 17 18 18 17 18 20 21 22 25 26 27 28 28 27 27 28 28 26 24 21 20 19 19 20
5 6 7 7 8 8 9 9 10 11 12 13 14 15 15 17 19 19 18 18 17 17 19 19 18 18 21 22 24 27 28 28 29 29 29 29 26 23 22 21 22 23
7 7 8 8 9 9 10 11 11 11 12 13 13 14 14 16 18 19 19 17 16 17 19 19 18 20 21 21 23 24 25 27 29 30 30 29 28 25 24 24 24 24
7 8 9 9 10 10 11 11 11 12 12 13 13 14 14 15 17 18 18 18 19 20 20 19 20 22 22 22 22 21 22 24 27 29 30 29 27 25 24 25 25 23
8 9 10 10 10 11 12 12 12 13 13 13 13 14 14 15 16 17 19 22 23 21 20 20 22 22 23 22 20 20 21 23 26 28 28 27 26 24 23 23 21 21
9 10 10 11 11 12 12 12 13 13 13 13 14 13 14 16 18 19 22 24 24 22 21 21 22 22 23 22 21 21 23 24 26 26 24 23 22 21 20 18 16 17
10 11 11 12 13 13 14 15 15 15 14 14 14 14 16 19 20 21 23 25 24 22 20 19 19 21 21 22 22 23 23 24 24 23 22 20 19 17 16 15 16 17
11 11 12 12 13 13 14 14 15 15 15 14 15 17 20 23 22 21 22 23 22 21 19 17 18 18 19 20 21 22 22 21 21 20 19 18 17 16 17 18 18 19
Wind_Direction
185 191 189 187 193 202 198 190 197 196 181 188 217 235 252 261 142 56 40 64 73 80 85 82 82 81 76 93 104 73 57 60 59 63 67 72 72 70 73 74 82 91
190 194 196 190 187 201 205 188 193 213 201 189 208 230 246 261 267 289 312 346 354 356 50 40 53 62 35 63 67 26 43 47 48 57 57 62 63 62 66 65 68 79
191 191 199 197 187 197 214 197 191 212 220 204 206 222 241 260 269 271 288 306 309 310 315 302 316 324 310 345 350 325 2 19 22 39 45 56 60 57 61 60 57 60
190 189 194 199 190 194 214 214 201 206 221 220 214 220 235 255 268 270 275 284 288 291 293 289 288 285 287 297 302 302 319 334 343 1 11 33 53 54 56 57 55 55
192 191 193 196 194 195 210 222 217 211 218 227 225 225 231 246 260 268 272 275 276 278 282 281 281 281 281 285 286 285 293 303 311 322 331 342 2 30 39 48 57 55
193 196 197 198 195 197 206 217 220 217 222 231 236 236 234 241 255 263 267 271 273 272 275 276 277 276 275 279 279 277 283 287 292 299 303 308 314 324 337 351 20 25
191 194 200 207 206 205 210 217 222 226 229 232 239 245 243 242 250 259 263 268 269 269 269 272 276 276 273 273 270 270 275 273 276 284 280 280 292 299 308 317 332 350
195 197 204 213 215 214 218 227 231 235 238 238 239 245 247 246 249 256 260 260 260 261 260 260 268 273 273 273 269 266 266 260 260 271 272 258 267 281 292 296 297 288
207 212 220 227 230 223 219 227 232 234 240 242 241 243 246 249 251 253 258 258 254 252 252 250 253 260 265 268 268 264 262 258 253 261 269 251 244 262 277 279 283 281
220 226 229 233 239 236 230 237 242 240 238 239 242 244 243 244 247 249 253 255 253 249 247 245 244 248 254 258 263 260 254 255 252 255 265 255 238 249 255 252 267 279
224 226 227 227 233 235 235 241 248 248 246 246 249 249 245 246 252 255 251 249 250 249 247 245 242 242 246 251 259 261 252 250 252 256 265 254 239 246 242 229 246 264
224 228 234 232 234 237 235 237 243 247 250 253 255 253 250 250 256 261 253 244 244 245 242 242 241 241 244 247 253 258 257 252 251 254 259 250 241 244 235 224 237 254
229 234 242 243 245 246 242 237 238 244 251 256 256 253 251 251 253 255 247 240 242 243 239 238 238 237 240 243 246 251 254 252 249 250 253 249 242 237 229 231 242 253
255 262 259 254 250 246 244 239 239 247 257 260 255 249 248 247 247 246 242 240 244 244 239 236 234 232 234 236 238 242 247 248 246 246 246 241 238 236 232 236 248 256
302 282 278 279 271 261 258 256 257 263 266 263 258 253 248 247 248 249 248 246 244 241 240 239 237 236 237 237 236 235 238 243 245 244 242 234 230 234 234 236 247 260
235 256 267 275 272 267 267 272 279 282 281 278 272 263 255 254 258 259 255 251 247 245 244 243 239 240 242 239 238 237 234 236 242 243 241 235 229 233 236 239 250 264
255 252 258 257 254 252 254 262 271 276 280 284 283 276 269 267 266 264 262 259 257 255 252 246 240 241 244 241 240 241 237 233 237 241 240 236 231 232 234 237 250 267
270 261 254 251 253 252 251 255 257 259 264 269 272 274 276 275 269 266 265 265 263 261 257 251 246 247 251 248 241 240 239 233 234 238 237 231 225 226 229 234 250 264
263 262 263 262 260 257 255 256 257 258 259 260 261 266 273 274 270 265 263 263 265 264 259 255 253 253 254 251 242 238 238 234 231 232 232 230 228 229 232 242 256 265
265 262 264 264 264 264 260 258 258 259 259 260 260 261 266 271 271 267 263 263 265 264 261 260 258 253 252 253 249 243 240 238 235 233 233 234 235 238 243 254 266 272
279 273 269 267 265 265 264 264 264 263 262 263 262 261 261 265 268 268 265 262 258 256 257 258 254 249 250 255 255 250 245 244 242 239 236 236 239 244 253 264 273 278
281 278 278 276 272 270 272 273 270 267 266 267 267 265 263 261 263 265 262 258 255 253 254 254 251 249 250 252 254 252 248 245 244 240 238 238 242 249 260 268 275 280
280 279 279 277 275 275 276 275 274 272 270 269 268 269 269 263 260 258 254 252 253 254 253 251 249 249 249 247 246 247 244 240 238 237 238 241 247 255 264 271 279 286
275 276 275 273 273 272 272 273 274 274 273 271 270 270 270 265 257 250 248 250 253 254 254 252 250 250 248 245 244 244 241 237 235 236 240 246 253 261 268 276 284 288
274 272 269 267 267 266 266 265 265 265 267 270 269 265 261 258 253 248 248 251 254 257 258 256 252 248 246 245 246 245 242 240 240 242 245 250 256 261 265 271 277 279
274 273 272 270 268 266 266 265 266 265 262 262 261 257 253 252 252 251 251 253 255 257 258 255 252 249 249 251 252 249 246 246 246 246 247 251 256 263 268 272 276 279
Height
1507 1509 1510 1512 1513 1514 1515 1517 1518 1519 1520 1521 1521 1521 1521 1522 1522 1523 1523 1524 1524 1525 1525 1526 1526 1526 1527 1527 1528 1528 1528 1529 1529 1529 1529 1529 1529 1529 1529 1529 1529 1529
1506 1508 1510 1511 1513 1514 1515 1517 1518 1519 1520 1521 1521 1521 1521 1522 1522 1523 1523 1524 1524 1525 1525 1526 1526 1526 1527 1527 1528 1528 1528 1529 1529 1529 1529 1529 1529 1529 1530 1530 1529 1529
1505 1507 1509 1511 1513 1514 1515 1517 1519 1519 1520 1521 1521 1522 1521 1521 1522 1523 1523 1523 1524 1524 1525 1525 1525 1526 1526 1526 1527 1527 1527 1528 1528 1529 1529 1529 1530 1530 1530 1530 1530 1530
1505 1507 1509 1511 1513 1515 1516 1517 1518 1519 1519 1520 1521 1522 1521 1521 1522 1522 1523 1523 1523 1523 1524 1524 1524 1525 1525 1526 1526 1527 1527 1527 1528 1528 1528 1529 1529 1529 1529 1530 1530 1530
1504 1507 1509 1511 1513 1514 1516 1516 1518 1519 1520 1520 1521 1522 1522 1522 1522 1522 1523 1523 1523 1523 1523 1523 1524 1524 1525 1525 1526 1526 1526 1527 1527 1527 1528 1528 1528 1529 1529 1529 1529 1530
1503 1506 1508 1511 1512 1514 1515 1516 1517 1519 1520 1521 1521 1522 1522 1522 1522 1522 1523 1522 1522 1522 1522 1522 1523 1523 1524 1524 1525 1525 1525 1526 1526 1527 1527 1527 1527 1528 1528 1529 1529 1529
1502 1505 1507 1510 1511 1513 1514 1515 1517 1518 1520 1521 1521 1522 1522 1522 1522 1522 1522 1522 1522 1522 1522 1522 1522 1523 1523 1523 1524 1524 1524 1525 1525 1526 1527 1527 1527 1527 1527 1528 1528 1528
1500 1503 1506 1508 1510 1512 1514 1515 1516 1517 1519 1520 1521 1521 1521 1521 1521 1521 1521 1521 1521 1521 1521 1521 1521 1522 1522 1522 1523 1524 1524 1525 1524 1525 1526 1526 1526 1526 1526 1527 1527 1528
1499 1501 1504 1507 1510 1511 1511 1513 1514 1515 1517 1518 1519 1520 1520 1520 1520 1520 1520 1520 1521 1521 1521 1521 1521 1521 1521 1521 1522 1523 1523 1524 1524 1524 1525 1526 1526 1525 1526 1526 1526 1527
1500 1500 1501 1505 1508 1509 1509 1511 1513 1514 1514 1515 1516 1518 1518 1518 1518 1518 1518 1519 1519 1520 1521 1522 1522 1521 1521 1521 1521 1522 1523 1523 1524 1524 1524 1525 1525 1525 1526 1525 1524 1525
1499 1498 1499 1501 1504 1505 1505 1507 1512 1513 1512 1512 1513 1515 1516 1516 1515 1514 1514 1516 1518 1520 1521 1521 1521 1521 1520 1520 1520 1521 1522 1523 1523 1523 1524 1524 1525 1524 1525 1525 1524 1524
1497 1497 1498 1499 1501 1502 1502 1504 1508 1510 1509 1510 1511 1511 1512 1512 1511 1510 1511 1513 1516 1518 1519 1519 1519 1519 1519 1519 1519 1519 1520 1521 1522 1522 1522 1523 1524 1524 1524 1524 1523 1523
1496 1496 1497 1498 1499 1500 1501 1502 1504 1506 1506 1508 1510 1510 1510 1510 1510 1509 1510 1511 1514 1516 1517 1517 1517 1517 1517 1517 1518 1518 1518 1519 1519 1520 1521 1521 1522 1522 1523 1522 1522 1522
1496 1496 1496 1497 1498 1499 1500 1501 1502 1503 1503 1505 1507 1508 1508 1507 1507 1507 1507 1510 1512 1512 1514 1514 1514 1513 1514 1515 1516 1516 1516 1516 1516 1516 1517 1518 1519 1520 1521 1521 1520 1521
1495 1495 1495 1496 1497 1498 1499 1500 1500 1500 1501 1502 1503 1504 1504 1503 1504 1504 1505 1507 1508 1508 1509 1510 1511 1510 1511 1513 1513 1514 1515 1514 1513 1513 1513 1515 1516 1517 1518 1519 1519 1519
1496 1496 1496 1496 1496 1497 1497 1498 1498 1498 1499 1500 1501 1501 1501 1501 1501 1503 1503 1504 1504 1505 1506 1506 1508 1508 1509 1510 1511 1512 1512 1512 1511 1511 1511 1512 1513 1514 1515 1516 1517 1517
1495 1495 1496 1496 1496 1496 1497 1497 1498 1498 1498 1499 1499 1499 1499 1499 1499 1499 1500 1500 1501 1502 1502 1503 1504 1505 1506 1507 1508 1509 1510 1509 1509 1509 1509 1510 1511 1512 1513 1514 1515 1515
1494 1495 1495 1496 1496 1496 1496 1496 1497 1497 1498 1498 1498 1498 1497 1498 1497 1497 1497 1498 1498 1499 1499 1500 1500 1502 1502 1504 1505 1506 1506 1506 1506 1506 1507 1508 1509 1509 1511 1512 1512 1513
1493 1494 1494 1495 1495 1495 1495 1495 1495 1496 1496 1496 1496 1496 1496 1495 1496 1496 1495 1495 1496 1496 1496 1496 1497 1498 1499 1499 1501 1503 1503 1503 1503 1504 1505 1505 1506 1507 1508 1509 1510 1510
1492 1492 1493 1493 1494 1494 1494 1494 1494 1494 1494 1494 1494 1494 1494 1494 1494 1494 1493 1494 1494 1493 1493 1493 1495 1495 1495 1496 1498 1499 1500 1501 1501 1501 1502 1503 1504 1504 1505 1506 1507 1507
1491 1491 1491 1492 1492 1492 1492 1492 1492 1492 1492 1492 1492 1492 1492 1492 1492 1491 1491 1492 1491 1490 1490 1491 1492 1492 1492 1494 1495 1496 1498 1499 1499 1499 1500 1501 1502 1502 1503 1504 1504 1505
1490 1490 1490 1490 1490 1490 1490 1490 1490 1490 1490 1490 1490 1490 1490 1490 1490 1490 1490 1489 1488 1488 1488 1489 1489 1490 1490 1492 1493 1494 1496 1497 1497 1498 1499 1500 1500 1501 1501 1502 1502 1503
1488 1489 1489 1489 1489 1489 1489 1488 1488 1488 1488 1488 1488 1488 1488 1488 1488 1488 1487 1486 1485 1485 1486 1487 1487 1488 1489 1490 1491 1492 1494 1495 1496 1496 1497 1498 1498 1499 1499 1500 1501 1501
1487 1487 1487 1487 1487 1487 1487 1487 1487 1486 1486 1486 1486 1486 1486 1485 1485 1485 1484 1483 1483 1483 1484 1484 1486 1486 1487 1488 1490 1491 1492 1493 1494 1495 1495 1496 1496 1497 1498 1498 1499 1499
1485 1485 1485 1485 1484 1484 1484 1484 1484 1484 1484 1484 1485 1485 1483 1482 1482 1482 1481 1481 1481 1482 1482 1483 1484 1485 1486 1487 1488 1489 1490 1491 1492 1493 1494 1494 1495 1495 1496 1497 1497 1497
1482 1482 1482 1482 1482 1482 1482 1482 1482 1482 1482 1483 1482 1481 1480 1480 1479 1480 1480 1480 1480 1481 1481 1482 1483 1484 1485 1486 1487 1488 1488 1489 1490 1491 1492 1492 1493 1494 1494 1494 1495 1494